User: anonymous   Login
Location: Guayaquil
(2.1667°S, 79.9000°W)
Time: 21:53:53
(UTC-05:00)
Language:

NEE 01 PEGASUS - Orbit

View from above orbital plane
View from above orbital plane
View from above satellite
View from above satellite

Ground track
Ground track

The orbit data is extracted from the following two-line orbital elements,

1 39151U 13018B   19082.80350701  .00000134  00000-0  24664-4 0  9990
2 39151  97.9686 179.8796 0018361 121.4279 238.8731 14.80012399318874
Epoch (UTC): 23 March 2019 19:17:03
Eccentricity: 0.0018361
inclination: 97.9686°
perigee height: 616 km
apogee height: 642 km
right ascension of ascending node: 179.8796°
argument of perigee: 121.4279°
revolutions per day: 14.80012399
mean anomaly at epoch: 238.8731°
orbit number at epoch: 31887

The dashed part of the orbit path shows where the satellite is in the earth's shadow,  

DLR